Weather History for Marathon, FL

Change the Weather History Date:

Saturday, October 27, 2012

  Actual Average Record
Temperature  
Mean Temperature 80 °F 79 °F  
Max Temperature 83 °F 83 °F 89 °F (2002)
Min Temperature 76 °F 74 °F 64 °F (2001)
Degree Days  
Heating Degree Days 0 0  
Month to date heating degree days 0 0  
Since 1 July heating degree days 0 0  
Cooling Degree Days 15 14  
Month to date cooling degree days 481 433  
Year to date cooling degree days 4724 4387  
Growing Degree Days 28 (Base 50)    
Moisture  
Dew Point 63 °F    
Average Humidity 61    
Maximum Humidity 74    
Minimum Humidity 47    
Precipitation  
Precipitation 0.00 in 0.15 in 0.67 in (2007)
Month to date precipitation 3.67 4.24  
Year to date precipitation 43.80 40.79  
Snow  
Snow 0.00 in - - ()
Month to date snowfall 0.0  
Since 1 July snowfall 0.0  
Since 1 September snowfall 0.0  
Snow Depth 0.00 in    
Sea Level Pressure  
Sea Level Pressure 29.68 in    
Wind  
Wind Speed 16 mph (WNW)    
Max Wind Speed 23 mph    
Max Gust Speed 41 mph    
Visibility 10 miles    
Events      
T = Trace of Precipitation, MM = Missing Value Source: NWS Daily Summary

Daily Weather History Graph

Daily Weather History Graph

Search for Another Location

Airport:

Trip Planner

Search our weather history database for the weather conditions in past years. The results will help you decide how hot, cold, wet, or windy it might be!

Date:

Astronomy

Oct. 27, 2012 Rise Set
Actual Time 7:28 AM EDT 6:47 PM EDT
Civil Twilight 7:05 AM EDT 7:10 PM EDT
Nautical Twilight 6:38 AM EDT 7:37 PM EDT
Astronomical Twilight 6:11 AM EDT 8:03 PM EDT
Moon 5:25 PM EDT (10/27) 5:31 AM EDT (10/27)
Length of Visible Light 12h 05m
Length of Day
11h 18m
Waxing Gibbous, 96% of the Moon is Illuminated
Oct 27
Waxing Gibbous
Oct 29
Full
Nov 6
Last Quarter
Nov 13
New
Nov 20
First Quarter

Hourly Weather History & Observations

Time (EDT) Temp. Heat Index Dew Point Humidity Pressure Visibility Wind Dir Wind Speed Gust Speed Precip Events Conditions
12:53 AM 77.0 °F - 68.0 °F 74% 29.64 in 10.0 mi NW 13.8 mph 20.7 mph N/A   Partly Cloudy
1:53 AM 77.0 °F - 64.0 °F 64% 29.64 in 10.0 mi NW 16.1 mph 28.8 mph N/A   Clear
2:53 AM 75.9 °F - 64.0 °F 67% 29.63 in 10.0 mi NW 16.1 mph 26.5 mph N/A   Clear
3:53 AM 75.9 °F - 64.9 °F 69% 29.62 in 10.0 mi WNW 15.0 mph 27.6 mph N/A   Clear
4:53 AM 75.9 °F - 64.9 °F 69% 29.63 in 10.0 mi NW 16.1 mph 26.5 mph N/A   Scattered Clouds
5:53 AM 75.9 °F - 64.9 °F 69% 29.63 in 10.0 mi NW 13.8 mph 24.2 mph N/A   Partly Cloudy
6:53 AM 75.9 °F - 64.0 °F 67% 29.64 in 10.0 mi WNW 12.7 mph 27.6 mph N/A   Partly Cloudy
7:53 AM 75.9 °F - 64.9 °F 69% 29.66 in 10.0 mi WNW 15.0 mph 25.3 mph N/A   Partly Cloudy
8:53 AM 78.1 °F - 64.0 °F 62% 29.69 in 10.0 mi WNW 17.3 mph 28.8 mph N/A   Partly Cloudy
10:53 AM 81.0 °F 82.2 °F 63.0 °F 54% 29.72 in 10.0 mi WNW 17.3 mph 29.9 mph N/A   Clear
11:53 AM 82.0 °F 83.4 °F 64.0 °F 54% 29.71 in 10.0 mi WNW 15.0 mph 29.9 mph N/A   Clear
12:53 PM 82.9 °F 84.4 °F 64.0 °F 53% 29.70 in 10.0 mi WNW 18.4 mph 28.8 mph N/A   Clear
1:53 PM 82.9 °F 84.0 °F 63.0 °F 51% 29.69 in 10.0 mi WNW 12.7 mph 32.2 mph N/A   Clear
2:53 PM 82.9 °F 83.7 °F 62.1 °F 49% 29.67 in 10.0 mi WNW 17.3 mph 41.4 mph N/A   Clear
3:53 PM 82.0 °F 82.7 °F 61.0 °F 49% 29.66 in 10.0 mi WNW 20.7 mph 33.4 mph N/A   Clear
4:53 PM 81.0 °F 81.9 °F 62.1 °F 52% 29.66 in 10.0 mi WNW 16.1 mph 29.9 mph N/A   Clear
5:53 PM 79.0 °F - 62.1 °F 56% 29.67 in 10.0 mi WNW 18.4 mph 31.1 mph N/A   Clear
6:53 PM 78.1 °F - 61.0 °F 56% 29.69 in 10.0 mi WNW 17.3 mph 28.8 mph N/A   Clear
7:53 PM 78.1 °F - 61.0 °F 56% 29.71 in 10.0 mi WNW 17.3 mph 28.8 mph N/A   Clear
8:53 PM 77.0 °F - 62.1 °F 60% 29.73 in 10.0 mi WNW 16.1 mph 24.2 mph N/A   Clear
9:53 PM 77.0 °F - 63.0 °F 62% 29.74 in 10.0 mi WNW 13.8 mph 21.9 mph N/A   Clear
10:53 PM 77.0 °F - 64.0 °F 64% 29.75 in 10.0 mi WNW 13.8 mph 21.9 mph N/A   Clear